Location: Austin
(30.3000°N, 97.7500°W)
Time: 07:54:18
(UTC-05:00)

COSMOS 2406 - Pass Details

Date: 19 September 2023
Orbit: 840 x 866 km, 71.0° (Epoch: 25 September)

Event Time Altitude Azimuth Distance (km) Brightness Sun altitude
Exits shadow 05:20:02 32° 325° (NW) 1,457 4.2 -25.7°
Drops below altitude 10° 05:23:53 10° 1° (N) 2,509 5.9 -24.9°
Sets 05:26:34 0° 10° (N) 3,450 6.7 -24.4°
